Tracking 33877 objects as of 19-Apr-2026
HD Live streaming from Space Station
objects crossing your sky now

STARLINK-31866

Track STARLINK-31866 now!
10-day predictions
STARLINK-31866 is classified as:


NORAD ID: 59668
Int'l Code: 2024-084Q
Perigee: 489.3 km
Apogee: 491.0 km
Inclination: 43.0 °
Period: 94.3 minutes
Semi major axis: 6861 km
RCS: Unknown
Launch date: May 6, 2024
Source: United States (US)
Launch site: AIR FORCE EASTERN TEST RANGE (AFETR)
Your satellite tracking list
Your tracking list is empty




NASA's NSSDC Master Catalog

Two Line Element Set (TLE):
1 59668U 24084Q   26109.45902019  .00001897  00000-0  78419-4 0  9998
2 59668  43.0022 164.1553 0001244 275.8826  84.1884 15.27583341110690
Source of the keplerian elements: AFSPC